Weather History for KSDA - February, 2012

Change the Weather History Date:

Sunday, February 26, 2012

  Actual Average Record
Temperature  
Mean Temperature 44 °F -  
Max Temperature 55 °F 44 °F 59 °F (1976)
Min Temperature 33 °F 24 °F -8 °F (1963)
Degree Days  
Heating Degree Days 21    
Moisture  
Dew Point 23 °F    
Average Humidity 43    
Maximum Humidity 70    
Minimum Humidity 23    
Precipitation  
Precipitation 0.00 in - - ()
Sea Level Pressure  
Sea Level Pressure 29.90 in    
Wind  
Wind Speed 15 mph (WSW)    
Max Wind Speed 24 mph    
Max Gust Speed 32 mph    
Visibility 10 miles    
Events      
Averages and records for this station are not official NWS values.
T = Trace of Precipitation, MM = Missing Value Source: NWS Daily Summary

Daily Weather History Graph

Daily Weather History Graph

Search for Another Location

Airport or City:

Trip Planner

Search our weather history database for the weather conditions in past years. The results will help you decide how hot, cold, wet, or windy it might be!

Date:

Astronomy

Feb. 26, 2012 Rise Set
Actual Time 7:00 AM CST 6:08 PM CST
Civil Twilight 6:33 AM CST 6:36 PM CST
Nautical Twilight 6:01 AM CST 7:08 PM CST
Astronomical Twilight 5:29 AM CST 7:40 PM CST
Moon 8:54 AM CST (2/26) 11:09 PM CST (2/26)
Length of Visible Light 12h 03m
Length of Day
11h 08m
Waxing Crescent, 21% of the Moon is Illuminated
Feb 26
Waxing Crescent
Feb 29
First Quarter
Mar 8
Full
Mar 14
Last Quarter
Mar 22
New

Hourly Weather History & Observations

Time (CST) Temp. Windchill Dew Point Humidity Pressure Visibility Wind Dir Wind Speed Gust Speed Precip Events Conditions
12:15 AM 37.4 °F 26.1 °F 21.2 °F 52% 29.80 in 10.0 mi SE 24.2 mph 31.1 mph N/A   Scattered Clouds
12:35 AM 37.4 °F 26.1 °F 23.0 °F 56% 29.78 in 10.0 mi SE 24.2 mph 32.2 mph N/A   Scattered Clouds
1:15 AM 37.4 °F 26.6 °F 23.0 °F 56% 29.76 in 10.0 mi SSE 21.9 mph 32.2 mph N/A   Scattered Clouds
1:35 AM 37.4 °F 27.8 °F 23.0 °F 56% 29.76 in 10.0 mi SSE 17.3 mph 23.0 mph N/A   Scattered Clouds
2:15 AM 37.4 °F 29.3 °F 23.0 °F 56% 29.78 in 10.0 mi South 12.7 mph 17.3 mph N/A   Scattered Clouds
2:35 AM 37.4 °F 30.3 °F 24.8 °F 60% 29.78 in 10.0 mi South 10.4 mph - N/A   Scattered Clouds
2:55 AM 39.2 °F 30.8 °F 24.8 °F 56% 29.78 in 10.0 mi South 15.0 mph 20.7 mph N/A   Scattered Clouds
3:35 AM 39.2 °F 30.8 °F 24.8 °F 56% 29.76 in 10.0 mi South 15.0 mph - N/A   Scattered Clouds
3:55 AM 39.2 °F 30.8 °F 24.8 °F 56% 29.76 in 10.0 mi South 15.0 mph 18.4 mph N/A   Scattered Clouds
4:15 AM 39.2 °F 30.2 °F 24.8 °F 56% 29.75 in 10.0 mi South 17.3 mph - N/A   Scattered Clouds
4:35 AM 39.2 °F 30.5 °F 24.8 °F 56% 29.75 in 10.0 mi South 16.1 mph 21.9 mph N/A   Scattered Clouds
4:55 AM 39.2 °F 30.5 °F 24.8 °F 56% 29.75 in 10.0 mi South 16.1 mph 21.9 mph N/A   Scattered Clouds
5:15 AM 39.2 °F 30.2 °F 24.8 °F 56% 29.75 in 10.0 mi South 17.3 mph - N/A   Scattered Clouds
5:35 AM 39.2 °F 31.6 °F 24.8 °F 56% 29.76 in 10.0 mi South 12.7 mph - N/A   Scattered Clouds
5:55 AM 39.2 °F 30.8 °F 24.8 °F 56% 29.77 in 10.0 mi SSW 15.0 mph - N/A   Scattered Clouds
6:15 AM 41.0 °F 32.8 °F 24.8 °F 53% 29.78 in 10.0 mi SSW 16.1 mph - N/A   Scattered Clouds
6:35 AM 39.2 °F 30.8 °F 24.8 °F 56% 29.79 in 10.0 mi SSW 15.0 mph 20.7 mph N/A   Scattered Clouds
6:55 AM 39.2 °F 32.0 °F 24.8 °F 56% 29.80 in 10.0 mi SW 11.5 mph - N/A   Scattered Clouds
7:35 AM 37.4 °F 30.3 °F 24.8 °F 60% 29.82 in 10.0 mi WSW 10.4 mph - N/A   Clear
7:55 AM 39.2 °F 34.2 °F 26.6 °F 61% 29.84 in 10.0 mi SW 6.9 mph - N/A   Clear
8:15 AM 39.2 °F 32.5 °F 26.6 °F 61% 29.84 in 10.0 mi SW 10.4 mph - N/A   Clear
8:55 AM 42.8 °F 37.0 °F 24.8 °F 49% 29.86 in 10.0 mi WSW 10.4 mph - N/A   Clear
9:15 AM 44.6 °F 38.8 °F 23.0 °F 43% 29.88 in 10.0 mi WSW 11.5 mph - N/A   Clear
9:35 AM 46.4 °F 40.1 °F 23.0 °F 40% 29.88 in 10.0 mi West 15.0 mph 20.7 mph N/A   Clear
9:55 AM 46.4 °F 39.2 °F 21.2 °F 37% 29.89 in 10.0 mi WSW 18.4 mph 23.0 mph N/A   Clear
10:15 AM 48.2 °F - 21.2 °F 34% 29.90 in 10.0 mi West 16.1 mph - N/A   Clear
10:35 AM 50.0 °F - 21.2 °F 32% 29.90 in 10.0 mi West 16.1 mph - N/A   Clear
10:55 AM 51.8 °F - 21.2 °F 30% 29.91 in 10.0 mi West 17.3 mph 25.3 mph N/A   Clear
11:15 AM 51.8 °F - 21.2 °F 30% 29.91 in 10.0 mi West 21.9 mph - N/A   Clear
11:35 AM 53.6 °F - 19.4 °F 26% 29.92 in 10.0 mi West 20.7 mph 25.3 mph N/A   Clear
11:55 AM 53.6 °F - 21.2 °F 28% 29.93 in 10.0 mi West 20.7 mph 24.2 mph N/A   Clear
12:15 PM 55.4 °F - 24.8 °F 31% 29.94 in 10.0 mi West 17.3 mph 21.9 mph N/A   Clear
12:35 PM 55.4 °F - 19.4 °F 25% 29.93 in 10.0 mi WNW 11.5 mph 21.9 mph N/A   Clear
12:55 PM 55.4 °F - 19.4 °F 25% 29.92 in 10.0 mi WNW 13.8 mph 19.6 mph N/A   Clear
1:15 PM 55.4 °F - 19.4 °F 25% 29.93 in 10.0 mi West 12.7 mph 21.9 mph N/A   Clear
1:35 PM 55.4 °F - 17.6 °F 23% 29.93 in 10.0 mi NW 8.1 mph 18.4 mph N/A   Clear
1:55 PM 55.4 °F - 17.6 °F 23% 29.94 in 10.0 mi WNW 11.5 mph - N/A   Clear
2:15 PM 55.4 °F - 17.6 °F 23% 29.94 in 10.0 mi NW 5.8 mph - N/A   Clear
2:35 PM 55.4 °F - 17.6 °F 23% 29.94 in 10.0 mi West 6.9 mph - N/A   Clear
2:55 PM 55.4 °F - 17.6 °F 23% 29.95 in 10.0 mi WNW 9.2 mph - N/A   Clear
3:15 PM 55.4 °F - 19.4 °F 25% 29.96 in 10.0 mi West 9.2 mph 19.6 mph N/A   Clear
3:35 PM 55.4 °F - 19.4 °F 25% 29.97 in 10.0 mi West 10.4 mph 17.3 mph N/A   Clear
3:55 PM 55.4 °F - 19.4 °F 25% 29.97 in 10.0 mi WNW 9.2 mph - N/A   Clear
4:15 PM 55.4 °F - 19.4 °F 25% 29.98 in 10.0 mi West 6.9 mph - N/A   Clear
4:35 PM 55.4 °F - 19.4 °F 25% 29.98 in 10.0 mi WNW 10.4 mph - N/A   Clear
4:55 PM 55.4 °F - 21.2 °F 26% 29.99 in 10.0 mi West 8.1 mph - N/A   Clear
5:15 PM 53.6 °F - 19.4 °F 26% 30.00 in 10.0 mi West 11.5 mph - N/A   Clear
5:35 PM 53.6 °F - 21.2 °F 28% 30.01 in 10.0 mi NW 10.4 mph - N/A   Clear
5:55 PM 50.0 °F - 23.0 °F 35% 30.02 in 10.0 mi NW 6.9 mph - N/A   Clear
6:15 PM 48.2 °F - 24.8 °F 40% 30.04 in 10.0 mi NW 5.8 mph - N/A   Clear
6:35 PM 46.4 °F 44.3 °F 24.8 °F 43% 30.05 in 10.0 mi NW 4.6 mph - N/A   Scattered Clouds
6:55 PM 42.8 °F 38.6 °F 24.8 °F 49% 30.06 in 10.0 mi NNE 6.9 mph - N/A   Scattered Clouds
7:15 PM 39.2 °F 37.0 °F 26.6 °F 61% 30.07 in 10.0 mi NNE 3.5 mph - N/A   Scattered Clouds
7:35 PM 39.2 °F - 26.6 °F 61% 30.08 in 10.0 mi Calm Calm - N/A   Scattered Clouds
7:55 PM 39.2 °F - 26.6 °F 61% 30.09 in 10.0 mi Calm Calm - N/A   Scattered Clouds
8:15 PM 33.8 °F - 24.8 °F 70% 30.11 in 10.0 mi Calm Calm - N/A   Scattered Clouds
8:35 PM 35.6 °F - 26.6 °F 70% 30.11 in 10.0 mi Calm Calm - N/A   Mostly Cloudy
8:55 PM 35.6 °F - 26.6 °F 70% 30.12 in 10.0 mi Calm Calm - N/A   Mostly Cloudy
9:15 PM 35.6 °F - 26.6 °F 70% 30.14 in 10.0 mi Calm Calm - N/A   Scattered Clouds
9:35 PM 30.2 °F - 24.8 °F 80% 30.16 in 10.0 mi Calm Calm - N/A   Scattered Clouds
9:55 PM 33.8 °F 29.6 °F 26.6 °F 75% 30.18 in 10.0 mi North 4.6 mph - N/A   Scattered Clouds
10:15 PM 37.4 °F 29.3 °F 24.8 °F 60% 30.20 in 10.0 mi North 12.7 mph - N/A   Scattered Clouds
10:35 PM 35.6 °F 27.5 °F 24.8 °F 65% 30.22 in 10.0 mi North 11.5 mph 21.9 mph N/A   Scattered Clouds
10:55 PM 33.8 °F 25.8 °F 24.8 °F 70% 30.23 in 10.0 mi North 10.4 mph - N/A   Clear
11:15 PM 33.8 °F 25.3 °F 23.0 °F 65% 30.24 in 10.0 mi North 11.5 mph 18.4 mph N/A   Clear
11:35 PM 33.8 °F 28.6 °F 23.0 °F 65% 30.26 in 10.0 mi North 5.8 mph - N/A   Clear
11:55 PM 32.0 °F 26.4 °F 23.0 °F 69% 30.28 in 10.0 mi North 5.8 mph - N/A   Scattered Clouds